Location: Callanans Corners
(42.5326°N, 73.8846°W)
Time: 14:02:08
(UTC+00:00)

Cosmos 1908 Rocket - Pass Details

Date: 06 October 2022
Orbit: 606 x 630 km, 82.5° (Epoch: 28 November)

Event Time Altitude Azimuth Distance (km) Brightness Sun altitude
Rises 23:11:12 0° 176° (S) 2,850 6.9 -8.7°
Reaches altitude 10° 23:13:26 10° 172° (S) 1,950 6.0 -9.2°
Maximum altitude 23:17:38 55° 94° (E) 730 3.6 -9.9°
Drops below altitude 10° 23:21:53 10° 17° (NNE) 1,965 6.0 -10.7°
Sets 23:24:09 0° 13° (NNE) 2,876 6.9 -11.1°
